sat.trackr.live / text

‹ back to catalog

STARLINK-31355

NORAD 58978 · 2024-031P

PAYLOAD ACTIVE UNKNOWN

§ Identity

Operator
Country
US
Launch date
2024-02-15
Launch site
AFWTR
Launch vehicle
Mass (kg)
RCS (m²)

Purposes: comms

External: N2YO · Heavens-Above · Gunter

§ Orbital elements

Epoch: 2026-05-24T22:10:59.582208Z

Period
94.11 min
Inclination
53.1611°
Eccentricity
0.0001061
Mean motion
15.30198177 rev/d
Perigee alt
474.5 km
Apogee alt
475.9 km
Semi-major
6,853.4 km
B*
7.6723e-5
RAAN
302.6881°
Arg perigee
90.8172°
Mean anomaly
269.2950°
Rev number
12,818

§ Raw data

STARLINK-313551 58978U 24031P   26144.92430072  .00001914  00000+0  76723-4 0  99942 58978  53.1611 302.6881 0001061  90.8172 269.2950 15.30198177128184

JSON: /api/v1/satellites/58978 · /tle

For live sub-satellite position, see the globe view (requires WebGL).

§ Visibility from observer

Set your observer location to see the next 7 days of passes ≥ 10°. The values pass through the URL so the page stays shareable.

No JS? Fill the form by hand. The geolocation button needs JavaScript.